Change the Weather History Date:

Monday, August 12, 2013

  Actual Average Record
Temperature  
Mean Temperature 58 °F -  
Max Temperature 66 °F 62 °F 73 °F (2005)
Min Temperature 50 °F 41 °F 35 °F (1996)
Degree Days  
Heating Degree Days 7    
Growing Degree Days 8 (Base 50)    
Moisture  
Dew Point 49 °F    
Average Humidity 76    
Maximum Humidity 94    
Minimum Humidity 62    
Precipitation  
Precipitation 0.03 in - - ()
Sea Level Pressure  
Sea Level Pressure 30.07 in    
Wind  
Wind Speed 7 mph (ENE)    
Max Wind Speed 12 mph    
Max Gust Speed -    
Visibility 10 miles    
Events      
Averages and records for this station are not official NWS values.
T = Trace of Precipitation, MM = Missing Value Source: NWS Daily Summary

Daily Weather History Graph

Daily Weather History Graph

Search for Another Location

Airport or City:

Trip Planner

Search our weather history database for the weather conditions in past years. The results will help you decide how hot, cold, wet, or windy it might be!

Date:

Astronomy

Aug. 12, 2013 Rise Set
Actual Time 4:49 AM AKDT 10:41 PM AKDT
Civil Twilight 3:00 AM AKDT 12:25 AM AKDT
Nautical Twilight Sun does not rise Sun does not rise
Astronomical Twilight Sun does not rise Sun does not rise
Moon 2:30 PM AKDT (8/12) 9:54 PM AKDT (8/12)
Length of Visible Light 21h 25m
Length of Day
17h 51m
Waxing Crescent, 33% of the Moon is Illuminated
Aug 12
Waxing Crescent
Aug 14
First Quarter
Aug 20
Full
Aug 28
Last Quarter
Sep 5
New

Hourly Weather History & Observations

Time (AKDT) Temp. Dew Point Humidity Pressure Visibility Wind Dir Wind Speed Gust Speed Precip Events Conditions
12:16 AM 55.4 °F 44.6 °F 67% 30.10 in 10.0 mi NNE 8.1 mph - N/A   Overcast
12:36 AM 55.4 °F 42.8 °F 63% 30.10 in 10.0 mi NNE 6.9 mph - N/A   Overcast
12:56 AM 53.6 °F 46.4 °F 77% 30.10 in 10.0 mi North 6.9 mph - N/A   Scattered Clouds
1:16 AM 53.6 °F 41.0 °F 62% 30.10 in 10.0 mi NNW 6.9 mph - N/A   Clear
1:36 AM 53.6 °F 41.0 °F 62% 30.10 in 10.0 mi NNW 6.9 mph - N/A   Partly Cloudy
1:56 AM 51.8 °F 42.8 °F 71% 30.10 in 10.0 mi ENE 4.6 mph - N/A   Mostly Cloudy
2:16 AM 51.8 °F 42.8 °F 71% 30.10 in 10.0 mi ENE 3.5 mph - N/A   Mostly Cloudy
2:36 AM 50.0 °F 42.8 °F 76% 30.10 in 10.0 mi NE 6.9 mph - N/A   Partly Cloudy
2:56 AM 50.0 °F 42.8 °F 76% 30.09 in 10.0 mi NE 5.8 mph - N/A   Mostly Cloudy
3:16 AM 50.0 °F 42.8 °F 76% 30.10 in 10.0 mi ENE 5.8 mph - N/A   Overcast
3:36 AM 51.8 °F 42.8 °F 71% 30.09 in 10.0 mi East 5.8 mph - N/A   Overcast
3:56 AM 51.8 °F 44.6 °F 76% 30.09 in 10.0 mi ENE 6.9 mph - N/A   Overcast
4:16 AM 51.8 °F 44.6 °F 76% 30.09 in 10.0 mi ENE 6.9 mph - N/A   Overcast
4:36 AM 51.8 °F 44.6 °F 76% 30.09 in 10.0 mi East 9.2 mph - N/A   Overcast
4:56 AM 51.8 °F 44.6 °F 76% 30.09 in 10.0 mi ENE 5.8 mph - N/A   Overcast
5:16 AM 51.8 °F 44.6 °F 76% 30.08 in 10.0 mi ENE 10.4 mph - N/A   Overcast
5:36 AM 51.8 °F 44.6 °F 76% 30.09 in 10.0 mi East 9.2 mph - N/A   Overcast
5:56 AM 51.8 °F 44.6 °F 76% 30.08 in 10.0 mi East 10.4 mph - N/A   Overcast
6:16 AM 51.8 °F 44.6 °F 76% 30.08 in 10.0 mi ENE 8.1 mph - N/A   Mostly Cloudy
6:36 AM 53.6 °F 42.8 °F 67% 30.08 in 10.0 mi NE 9.2 mph - N/A   Mostly Cloudy
6:56 AM 53.6 °F 44.6 °F 72% 30.07 in 10.0 mi ENE 9.2 mph - N/A   Scattered Clouds
7:16 AM 55.4 °F 44.6 °F 67% 30.07 in 10.0 mi East 9.2 mph - N/A   Mostly Cloudy
7:36 AM 55.4 °F 44.6 °F 67% 30.07 in 10.0 mi East 6.9 mph - N/A   Overcast
7:56 AM 55.4 °F 44.6 °F 67% 30.07 in 10.0 mi East 8.1 mph - N/A   Overcast
8:16 AM 55.4 °F 46.4 °F 72% 30.09 in 10.0 mi ESE 8.1 mph - N/A   Overcast
8:36 AM 51.8 °F 48.2 °F 88% 30.08 in 10.0 mi NE 9.2 mph - 0.01 in   Overcast
8:56 AM 51.8 °F 48.2 °F 88% 30.10 in 10.0 mi East 4.6 mph - 0.02 in   Overcast
9:16 AM 51.8 °F 48.2 °F 88% 30.09 in 10.0 mi NNE 6.9 mph - N/A   Overcast
9:36 AM 51.8 °F 48.2 °F 88% 30.09 in 10.0 mi NE 6.9 mph - N/A   Overcast
9:56 AM 51.8 °F 48.2 °F 88% 30.09 in 10.0 mi ENE 8.1 mph - N/A   Overcast
10:16 AM 51.8 °F 48.2 °F 88% 30.09 in 10.0 mi ENE 5.8 mph - N/A   Overcast
10:36 AM 51.8 °F 50.0 °F 94% 30.08 in 10.0 mi NE 8.1 mph - N/A   Overcast
10:56 AM 53.6 °F 50.0 °F 88% 30.08 in 10.0 mi East 10.4 mph - N/A   Overcast
11:16 AM 53.6 °F 50.0 °F 88% 30.09 in 9.0 mi ENE 5.8 mph - N/A   Overcast
11:36 AM 53.6 °F 51.8 °F 94% 30.09 in 10.0 mi East 5.8 mph - N/A   Overcast
11:56 AM 53.6 °F 51.8 °F 94% 30.09 in 10.0 mi East 5.8 mph - 0.01 in   Overcast
12:16 PM 53.6 °F 51.8 °F 94% 30.09 in 10.0 mi ENE 4.6 mph - N/A   Overcast
12:36 PM 55.4 °F 51.8 °F 88% 30.10 in 10.0 mi WNW 3.5 mph - N/A   Overcast
12:56 PM 55.4 °F 51.8 °F 88% 30.09 in 10.0 mi West 3.5 mph - N/A   Overcast
1:16 PM 55.4 °F 51.8 °F 88% 30.09 in 10.0 mi Calm Calm - N/A   Overcast
1:36 PM 57.2 °F 53.6 °F 88% 30.09 in 10.0 mi NE 5.8 mph - N/A   Mostly Cloudy
1:56 PM 60.8 °F 53.6 °F 77% 30.08 in 10.0 mi NE 10.4 mph - N/A   Overcast
2:16 PM 60.8 °F 53.6 °F 77% 30.08 in 10.0 mi NE 10.4 mph - N/A   Scattered Clouds
2:36 PM 60.8 °F 53.6 °F 77% 30.08 in 10.0 mi NE 8.1 mph - N/A   Mostly Cloudy
2:56 PM 62.6 °F 53.6 °F 72% 30.07 in 10.0 mi NE 8.1 mph - N/A   Mostly Cloudy
3:16 PM 62.6 °F 53.6 °F 72% 30.07 in 10.0 mi ENE 6.9 mph - N/A   Mostly Cloudy
3:36 PM 62.6 °F 53.6 °F 72% 30.06 in 10.0 mi ENE 9.2 mph - N/A   Mostly Cloudy
3:56 PM 64.4 °F 55.4 °F 73% 30.06 in 10.0 mi NE 8.1 mph - N/A   Mostly Cloudy
4:16 PM 64.4 °F 53.6 °F 68% 30.05 in 10.0 mi East 11.5 mph - N/A   Partly Cloudy
4:36 PM 64.4 °F 53.6 °F 68% 30.05 in 10.0 mi ENE 8.1 mph - N/A   Clear
4:56 PM 66.2 °F 53.6 °F 64% 30.04 in 10.0 mi East 8.1 mph - N/A   Clear
5:16 PM 66.2 °F 55.4 °F 68% 30.04 in 10.0 mi ENE 8.1 mph - N/A   Clear
5:36 PM 66.2 °F 53.6 °F 64% 30.04 in 10.0 mi ENE 6.9 mph - N/A   Clear
5:56 PM 66.2 °F 53.6 °F 64% 30.04 in 10.0 mi East 3.5 mph - N/A   Clear
6:16 PM 66.2 °F 53.6 °F 64% 30.04 in 10.0 mi Calm Calm - N/A   Clear
6:36 PM 66.2 °F 53.6 °F 64% 30.04 in 10.0 mi East 3.5 mph - N/A   Clear
6:56 PM 66.2 °F 53.6 °F 64% 30.03 in 10.0 mi Calm Calm - N/A   Clear
7:16 PM 66.2 °F 53.6 °F 64% 30.03 in 10.0 mi Calm Calm - N/A   Clear
7:36 PM 66.2 °F 53.6 °F 64% 30.03 in 10.0 mi Calm Calm - N/A   Clear
7:56 PM 66.2 °F 53.6 °F 64% 30.02 in 10.0 mi Calm Calm - N/A   Clear
9:16 PM 64.4 °F 53.6 °F 68% 30.02 in 10.0 mi NNE 4.6 mph - N/A   Clear
9:36 PM 62.6 °F 55.4 °F 77% 30.02 in 10.0 mi NNW 4.6 mph - N/A   Clear
9:56 PM 60.8 °F 53.6 °F 77% 30.02 in 10.0 mi NNE 3.5 mph - N/A   Clear
10:16 PM 60.8 °F 53.6 °F 77% 30.02 in 10.0 mi NNE 3.5 mph - N/A   Clear
10:36 PM 59.0 °F 53.6 °F 82% 30.02 in 10.0 mi East 3.5 mph - N/A   Clear
10:56 PM 59.0 °F 55.4 °F 88% 30.02 in 10.0 mi ESE 3.5 mph - N/A   Clear
11:16 PM 59.0 °F 53.6 °F 82% 30.02 in 10.0 mi Calm Calm - N/A   Clear
11:36 PM 57.2 °F 53.6 °F 88% 30.01 in 10.0 mi Calm Calm - N/A   Clear
11:56 PM 57.2 °F 53.6 °F 88% 30.01 in 10.0 mi Calm Calm - N/A   Clear